Helicity
170 133 141 254 328 358 324 223 197 168 129 148 135 146 120 120 129 162 34 90 167 159 93 73 47 61 50 38 50 51 26 7 18 32 44 48 44 35 32 36 27 25 18 16 10 5 -3 -10 -17
154 137 179 277 352 410 347 217 128 118 121 82 110 144 179 113 119 55 96 111 151 148 103 65 66 57 46 39 54 58 42 17 25 40 38 28 39 32 28 25 19 12 10 5 3 -2 -13 -27 -38
153 124 203 310 355 310 289 210 102 171 131 137 95 132 155 94 84 36 106 130 158 133 105 61 70 46 40 40 50 49 46 45 29 28 26 49 27 20 12 4 0 1 -6 -2 -8 -22 -37 -47 -34
127 124 153 317 323 200 173 228 162 237 278 264 138 141 116 105 70 96 169 151 172 124 100 53 53 41 37 35 32 29 18 12 20 37 38 15 1 1 -6 -14 -17 -26 -30 -26 -25 -31 -25 -33 -18
110 98 142 293 338 182 204 259 163 188 189 235 175 211 130 145 113 105 175 145 142 129 93 65 45 30 29 24 16 2 -11 -15 -2 7 9 5 -11 -15 -20 -32 -45 -49 -44 -36 -22 -20 -9 -14 -13
71 83 -53 190 256 249 242 258 145 153 104 110 221 153 117 117 110 133 147 125 108 117 93 73 60 31 28 12 6 -5 -19 -29 -25 -15 -13 -17 -22 -35 -44 -43 -45 -46 -46 -36 -29 -18 -5 -1 -1
63 -7 -49 351 199 316 304 210 124 201 162 115 121 140 118 125 128 127 143 157 125 125 106 88 71 48 31 8 6 -3 -20 -25 -29 -35 -37 -42 -49 -49 -48 -44 -40 -28 -26 -21 -15 -4 -4 3 4
84 77 34 168 241 272 279 326 168 129 32 226 265 189 142 186 188 153 145 166 135 122 112 105 92 78 51 17 -3 -14 -18 -26 -39 -54 -53 -54 -60 -51 -38 -33 -19 -11 -2 6 10 8 13 20 20
171 -232 166 20 401 326 330 367 369 242 260 268 -10 -29 54 119 169 190 169 152 127 109 98 100 80 69 46 8 -2 -25 -29 -37 -46 -56 -58 -60 -70 -53 -33 -23 0 6 13 21 23 22 25 23 30
112 -29 -3 174 176 284 180 283 448 304 221 232 100 61 126 86 114 134 140 145 118 107 93 87 53 60 50 23 2 -20 -53 -59 -71 -73 -70 -68 -57 -43 -30 -14 5 13 17 23 25 25 25 25 17
92 39 29 15 157 112 109 218 367 269 219 185 119 92 90 171 265 157 110 77 99 87 95 71 50 53 48 30 12 -11 -34 -56 -73 -66 -53 -42 -31 -21 -12 -3 5 10 17 14 21 19 18 20 20
-41 47 225 140 176 233 126 198 316 376 291 147 211 165 221 307 243 156 123 69 95 83 78 67 49 57 54 48 33 12 -23 -39 -56 -58 -37 -14 -5 6 8 11 19 22 19 23 20 19 16 19 17
47 519 367 222 408 388 179 267 277 332 318 172 197 199 124 194 147 -4 37 83 169 110 70 75 69 75 75 55 59 37 0 -23 -34 -33 -19 1 9 16 20 23 28 31 35 35 29 25 23 18 11
32 182 493 207 339 561 238 373 308 339 291 155 160 144 156 121 66 185 101 31 47 115 78 74 74 83 92 78 66 57 26 7 3 -10 -3 6 22 34 37 41 37 43 45 45 46 38 32 24 24
28 105 473 379 501 447 566 428 396 441 344 299 199 125 129 125 111 50 68 104 179 205 107 102 77 76 87 85 86 94 78 53 29 17 26 19 33 47 53 58 52 53 58 58 61 57 53 43 39
-120 -210 189 529 640 339 352 480 470 455 349 405 285 224 170 175 117 99 107 135 -70 57 129 52 39 74 84 78 86 89 93 88 67 61 55 36 38 57 69 70 65 79 76 73 80 85 80 70 67
-238 -158 130 376 465 425 364 433 505 493 462 422 405 297 223 216 187 132 122 82 64 5 77 35 85 65 85 70 82 88 87 88 63 68 53 42 45 73 89 76 78 98 102 93 99 104 101 107 83
-131 -119 2 11 330 392 455 468 506 446 475 468 442 417 340 247 194 125 163 193 124 101 66 90 125 117 93 134 102 93 85 96 124 77 67 36 46 64 88 83 85 115 126 117 113 114 101 97 86
-71 -105 -15 -76 73 261 351 323 423 346 372 432 394 336 332 285 200 147 153 189 171 143 124 106 113 85 73 101 136 122 19 107 142 128 61 35 51 68 118 106 107 116 128 117 104 97 89 72 54
-14 -84 -37 -58 -43 -15 129 355 340 261 224 293 344 322 301 353 337 223 151 139 131 135 134 167 103 97 126 105 104 117 123 108 108 89 104 113 116 125 131 138 125 124 122 95 72 105 156 74 58
61 3 -32 10 -34 2 -72 111 174 161 92 311 305 246 243 248 304 239 150 99 87 87 113 138 114 152 203 148 172 188 196 154 132 131 131 128 106 133 173 190 188 168 147 119 111 93 91 68 52
16 62 48 70 -29 -2 -43 -61 38 202 54 141 152 159 147 150 170 174 139 98 104 81 84 87 86 134 143 144 162 163 116 120 162 176 187 161 154 164 200 210 222 205 161 149 134 94 96 103 64
36 54 49 81 102 116 75 -21 -18 -10 2 -31 88 119 78 127 113 130 110 93 64 76 86 94 91 99 102 134 134 153 189 108 128 119 104 136 169 196 206 207 219 213 198 204 168 130 90 84 79
36 88 121 128 96 14 64 53 26 2 -25 -25 -17 53 9 14 77 140 156 104 95 97 94 102 122 119 94 113 120 129 110 141 145 108 118 133 173 229 245 260 270 257 256 199 97 86 154 99 90
129 109 120 54 83 22 104 43 46 80 110 51 40 49 74 63 79 101 124 130 106 97 106 124 123 130 117 122 113 111 104 102 90 97 117 142 173 204 226 245 216 222 227 217 174 161 208 80 82
115 83 87 39 56 63 88 18 25 56 93 105 85 60 55 117 125 90 106 139 115 93 96 100 126 133 128 139 132 128 117 127 117 121 141 161 189 206 181 187 206 214 215 219 190 229 120 86 104
119 127 102 77 68 92 62 68 66 45 113 150 141 104 86 51 50 60 88 113 123 124 103 102 139 161 146 133 135 125 117 115 125 127 158 176 186 197 195 182 191 198 226 206 198 203 156 190 162
134 98 145 141 106 114 81 85 39 66 85 90 113 121 97 86 91 95 77 91 137 131 131 146 142 134 146 135 125 118 103 110 116 128 146 175 230 253 236 208 180 187 190 190 191 199 190 160 131
134 148 138 113 109 19 28 36 10 48 48 54 46 80 121 105 97 115 135 129 86 88 109 133 136 140 131 130 145 149 147 143 147 142 148 169 201 203 194 167 185 211 245 233 205 225 217 223 144
42 52 126 149 105 105 61 80 83 35 15 32 68 109 139 122 107 114 116 110 87 73 68 105 125 116 103 110 128 131 145 163 179 187 182 176 179 169 152 165 199 206 228 246 212 209 204 158 143
Wind_Speed
75 71 56 54 75 80 103 101 77 71 70 61 42 46 51 41 41 45 21 14 23 22 18 16 16 15 14 14 15 13 14 32 36 35 36 37 37 35 38 38 40 43 45 46 47 47 47 46 46
75 70 61 65 92 102 107 89 95 84 68 58 55 50 47 54 40 26 15 18 24 21 17 14 17 14 14 13 16 15 16 29 34 35 37 37 34 35 35 37 41 43 45 46 47 46 45 42 44
79 78 74 77 97 114 108 91 79 70 61 54 53 47 47 50 36 22 14 23 23 19 16 14 16 14 15 15 17 14 13 21 31 35 35 30 32 32 35 38 41 43 45 46 46 45 42 40 45
68 70 64 86 108 108 101 85 73 51 50 52 51 48 41 39 32 30 21 24 23 18 15 16 15 14 15 17 17 17 16 22 25 25 27 28 31 34 37 38 40 42 43 44 44 40 37 37 43
73 78 94 80 98 109 92 75 69 74 64 60 45 47 45 37 30 19 24 25 24 19 15 13 13 13 16 18 18 18 19 21 24 24 24 27 30 33 36 38 39 40 41 40 40 38 37 37 39
83 81 88 74 101 101 93 74 67 74 81 83 60 49 45 35 22 26 24 25 23 20 16 13 13 13 15 17 19 19 19 19 20 22 25 28 32 33 36 38 39 38 35 35 34 33 33 35 36
93 97 72 75 95 93 97 74 64 67 70 79 60 56 42 33 28 27 26 24 23 20 17 13 11 11 12 11 17 18 18 20 20 22 26 30 32 34 35 35 35 35 33 30 29 29 29 30 32
77 60 109 67 77 83 82 70 59 62 64 57 56 58 49 42 30 29 28 26 23 22 17 15 13 11 10 10 15 18 19 19 21 23 25 29 31 32 31 31 31 30 29 27 26 26 28 30 31
67 65 92 77 72 73 65 74 59 48 57 61 82 64 55 37 33 32 31 29 26 24 22 18 15 14 12 13 9 14 17 19 22 24 26 26 24 25 27 28 28 27 26 26 26 26 27 28 30
73 64 66 77 81 74 60 72 66 60 66 62 76 64 38 39 34 31 35 37 28 28 28 23 19 20 19 21 18 10 13 14 18 23 24 22 22 24 24 24 24 23 24 24 25 26 27 29 30
76 64 59 72 74 80 68 64 62 64 76 63 58 56 66 48 36 19 34 39 32 31 31 27 24 24 25 31 24 18 9 13 19 23 22 19 19 18 19 19 20 21 22 24 26 27 29 29 30
67 56 62 68 60 68 77 61 67 60 65 41 32 38 44 57 53 42 58 49 37 40 35 34 30 31 32 31 33 26 16 10 13 20 19 17 15 14 15 16 18 20 22 24 26 28 29 29 31
71 48 51 47 56 48 64 61 66 58 52 36 30 32 42 52 52 49 46 48 42 41 40 41 41 40 40 34 37 31 23 9 9 13 14 14 15 14 14 16 18 20 22 23 25 27 29 30 32
54 50 48 52 44 33 53 55 56 57 44 45 37 31 33 32 49 31 34 42 32 46 46 50 56 50 48 42 39 39 24 14 7 8 8 13 14 13 12 14 17 19 20 22 23 26 29 31 33
53 46 49 37 38 34 50 55 55 54 51 50 49 35 34 36 37 40 30 32 36 52 46 54 60 57 55 51 48 46 42 24 12 6 3 4 3 6 10 13 15 18 20 21 23 25 28 29 32
46 46 49 40 33 41 44 62 48 44 51 54 54 47 40 35 34 42 43 34 40 34 55 56 63 66 52 57 49 43 44 33 26 18 9 4 2 7 12 15 15 16 18 20 23 23 25 28 30
59 58 51 47 40 48 41 55 51 39 47 52 54 56 49 44 36 41 42 38 26 27 26 75 84 70 64 42 45 50 45 32 17 13 8 7 5 5 11 11 14 16 17 19 21 24 25 29 31
61 62 46 46 52 38 44 51 55 48 49 53 54 55 57 54 43 46 42 40 33 45 46 36 51 52 70 56 54 42 54 60 31 13 11 10 8 7 7 10 13 15 17 20 21 23 23 29 32
50 57 57 58 39 46 61 62 63 62 60 59 55 53 52 50 40 45 44 43 43 48 50 40 28 66 71 56 60 57 69 52 55 30 15 20 12 11 12 15 14 12 14 14 13 18 24 28 32
49 52 51 48 36 35 54 67 67 66 70 70 67 61 54 48 48 43 38 34 39 34 33 36 30 31 52 43 53 52 45 27 26 26 20 21 21 19 16 16 16 15 19 17 15 20 29 32 29
46 51 51 44 36 44 40 61 70 71 73 80 80 72 61 58 56 47 42 42 36 29 30 31 27 23 28 29 27 36 41 35 32 47 45 39 34 24 24 23 22 24 24 20 20 26 31 40 42
51 47 50 41 48 62 52 60 60 74 70 88 97 84 71 65 59 57 53 48 41 41 36 35 33 30 29 26 24 32 29 36 35 40 42 38 38 38 37 33 28 26 25 22 23 24 34 38 45
47 41 45 46 50 54 61 70 64 52 71 80 97 90 85 73 68 65 60 56 52 45 41 38 39 44 40 36 38 38 41 36 38 45 46 43 40 38 35 34 34 34 35 31 28 39 35 43 44
43 41 40 46 55 73 66 67 67 67 76 75 78 86 87 80 74 65 62 60 59 55 54 46 41 43 45 42 42 43 46 46 43 40 40 40 37 38 39 38 32 29 28 28 34 40 42 37 40
48 52 59 68 73 80 60 70 81 54 58 54 63 76 76 80 78 72 64 59 57 56 53 54 52 51 47 46 45 44 46 48 48 45 45 41 39 41 38 33 29 27 25 25 30 31 40 32 39
53 56 62 70 74 73 58 76 76 58 59 58 61 51 53 58 69 79 73 60 54 50 50 50 51 51 46 47 49 47 48 50 50 50 47 45 43 38 34 29 26 24 22 22 29 31 34 36 37
50 62 51 60 58 68 68 69 68 62 63 59 58 54 54 52 57 63 60 62 54 54 54 51 45 45 46 46 45 45 46 47 49 48 46 43 39 35 32 28 27 29 28 30 34 37 40 45 50
45 38 57 56 66 69 65 72 72 55 59 55 56 49 42 42 43 43 38 44 49 55 52 46 41 42 41 41 44 46 45 43 43 42 41 40 36 34 31 31 32 33 34 39 41 43 45 49 51
34 56 52 49 59 70 70 65 48 57 56 55 59 50 40 40 38 37 35 37 41 41 41 41 37 34 33 35 38 41 43 42 38 38 36 33 30 28 29 30 30 35 37 39 43 48 52 56 58
31 56 53 63 63 57 60 66 41 44 51 49 46 37 40 41 37 36 38 38 38 39 43 41 37 36 35 35 36 38 37 35 34 31 28 24 24 24 25 28 32 37 42 47 51 55 57 57 56
Wind_Direction
246 244 241 237 234 238 234 233 233 230 231 236 244 245 243 251 244 252 269 230 151 145 138 124 108 91 72 55 67 51 33 83 91 92 91 90 85 78 76 70 70 73 74 71 70 66 62 60 57
242 239 238 236 233 230 231 232 229 232 234 234 242 248 248 244 253 259 238 168 154 147 143 130 110 95 77 67 80 70 57 78 87 91 91 89 82 77 70 72 74 76 76 75 72 66 60 52 54
238 234 233 233 231 228 228 228 230 231 229 233 238 247 247 243 248 237 221 167 161 154 146 133 115 99 85 79 88 83 71 71 81 88 89 79 78 73 73 75 76 77 77 77 73 66 53 49 56
233 231 238 233 228 228 229 227 228 216 223 230 236 238 247 249 236 243 174 166 167 170 155 133 120 105 94 87 90 93 86 82 82 79 78 76 75 77 78 77 77 76 77 76 71 59 45 46 56
229 230 231 235 227 226 228 231 227 225 221 228 240 240 242 247 244 200 176 175 169 173 168 150 134 117 104 99 90 98 95 88 87 83 78 77 77 78 78 78 76 76 76 73 68 56 49 45 49
224 223 235 230 227 225 226 229 230 229 226 229 246 249 241 244 207 192 178 180 182 170 179 161 139 127 114 111 98 95 98 94 88 85 84 82 83 80 80 79 77 75 70 67 59 48 42 40 40
221 224 234 235 227 225 221 224 228 228 226 225 232 240 238 223 208 196 182 185 187 184 185 179 157 142 129 130 110 99 96 95 92 89 89 88 86 84 80 77 74 72 66 59 49 39 29 26 24
219 229 229 240 223 225 224 223 225 222 222 228 223 233 227 225 204 192 190 184 191 197 195 193 185 183 178 179 124 109 100 97 95 93 91 90 87 84 78 73 69 63 58 51 42 27 21 20 17
223 236 220 229 230 223 224 217 224 229 221 225 216 233 235 212 200 188 193 195 197 204 206 199 198 203 197 192 177 125 110 101 98 96 95 91 83 77 74 69 63 57 50 41 33 24 14 8 8
217 233 233 231 222 225 226 218 218 224 223 224 220 227 223 208 194 199 201 205 199 206 209 206 210 216 212 212 211 167 124 110 101 98 96 89 81 78 71 64 55 44 34 27 16 9 1 356 355
217 235 233 222 231 231 226 221 223 218 225 229 227 221 218 218 205 205 220 209 210 211 215 213 215 217 217 220 216 214 180 119 104 102 96 86 77 67 60 50 36 29 19 8 1 351 347 348 350
216 253 245 228 234 228 221 224 220 225 234 234 209 215 218 220 230 239 230 221 206 217 218 218 220 218 221 221 221 222 218 149 119 109 100 91 77 57 42 33 26 19 12 6 358 354 350 349 348
205 245 242 253 245 224 218 221 220 227 239 223 195 199 225 227 225 222 222 217 215 217 222 220 221 221 223 224 225 227 229 193 140 121 105 92 88 70 47 22 13 10 9 6 1 358 354 349 346
222 249 241 243 233 211 215 220 222 229 242 226 203 206 206 224 225 213 217 220 207 218 223 222 220 222 224 228 231 233 235 230 208 141 119 107 100 81 49 18 10 7 7 3 359 353 350 347 345
226 242 254 253 240 218 229 221 226 238 239 231 232 232 223 223 231 224 216 226 223 224 229 229 226 225 227 231 234 237 241 245 235 214 220 128 62 18 9 2 359 359 360 357 354 348 346 347 346
232 249 253 247 247 224 229 216 231 242 236 237 238 240 233 222 218 230 233 230 227 219 233 239 234 230 233 234 239 244 245 251 257 261 255 233 288 329 333 336 342 348 350 351 347 347 345 344 343
227 236 238 241 246 230 236 221 234 246 241 240 243 244 245 237 232 234 229 225 207 217 214 221 220 232 234 241 241 244 249 253 251 256 236 222 228 283 314 322 329 335 337 338 339 338 339 338 337
236 249 258 260 250 236 235 235 238 244 246 243 247 250 248 243 242 243 234 234 223 236 242 242 240 246 237 242 242 251 248 243 259 230 236 221 250 246 271 301 317 325 327 328 328 329 333 332 333
241 241 246 255 256 239 244 243 242 245 247 246 249 250 249 250 257 253 248 244 241 243 250 249 219 242 245 251 244 247 240 256 256 266 224 200 225 254 272 297 305 312 313 311 317 328 326 326 327
245 239 241 237 241 254 250 243 246 247 246 247 248 250 251 252 255 258 258 246 240 233 231 235 220 228 250 259 256 260 259 257 258 269 264 270 278 279 282 291 295 302 310 305 307 324 326 327 332
256 248 245 259 246 257 245 247 248 247 249 250 248 249 251 252 254 259 260 257 254 247 238 242 237 233 238 240 250 266 267 270 266 270 277 281 282 273 283 286 292 300 307 297 304 321 319 320 328
260 268 264 267 248 247 252 252 251 246 251 248 244 246 248 252 257 261 261 261 260 261 263 262 259 258 256 250 243 264 269 278 280 279 282 283 285 286 289 289 293 293 299 292 304 318 322 320 322
268 283 266 260 256 255 249 248 253 249 248 251 239 246 250 254 256 259 259 260 262 265 267 268 268 268 269 266 268 274 279 281 288 288 289 292 291 294 296 297 298 301 302 303 308 312 327 324 328
270 275 277 267 260 252 251 251 249 246 244 247 246 248 250 254 254 260 262 261 263 265 268 269 267 267 269 271 272 275 280 282 287 292 293 296 297 298 299 303 307 309 311 315 307 311 324 329 328
265 259 260 253 249 249 259 250 248 262 262 264 253 249 254 252 253 257 260 260 261 263 268 268 268 268 270 272 275 278 281 283 286 289 291 293 297 297 298 302 307 311 318 311 313 331 325 336 334
261 256 254 254 254 255 260 251 252 268 263 266 263 266 263 257 261 260 258 258 259 262 268 271 269 268 269 272 275 278 280 283 286 287 289 292 293 295 298 304 308 310 318 315 319 324 329 330 329
268 256 263 261 266 259 257 259 265 271 263 267 264 261 261 271 271 264 265 258 259 263 269 270 271 272 272 274 277 279 282 285 287 289 290 291 293 292 295 300 303 308 312 315 318 318 322 321 321
275 267 258 257 255 253 259 259 257 268 264 266 267 267 270 278 281 278 280 266 265 266 268 271 274 274 276 277 277 280 284 287 289 290 291 291 290 289 290 295 300 305 311 315 316 318 321 321 321
280 261 264 263 258 257 260 263 275 269 275 273 267 267 271 277 282 287 289 282 272 272 270 271 273 276 282 282 282 283 284 287 291 294 296 293 290 287 287 296 302 305 309 315 317 320 319 317 317
298 267 261 256 257 263 263 259 289 294 289 276 274 271 269 272 280 287 284 283 280 275 270 270 273 277 282 285 286 288 290 292 295 298 299 299 297 297 294 299 304 306 309 311 313 314 317 316 317